Wind_Speed
46 47 47 47 46 46 45 45 46 46 45 45 45 44 44 43 43 43 42 41 40 39 39 39 38 36 35 35 34 33 33 33 33 31 30 30 29 29 29 28 28 27 26
45 47 47 47 47 47 46 46 46 46 46 45 45 44 44 44 43 43 43 42 41 41 40 39 39 38 37 37 36 35 34 33 33 32 31 31 31 30 30 29 28 28 28
44 46 47 46 46 46 46 46 46 46 45 45 45 45 45 45 44 44 44 42 41 40 39 40 39 39 39 38 38 37 37 36 34 33 32 32 32 31 30 30 29 29 29
44 45 47 46 46 46 46 46 47 46 46 45 45 46 45 45 45 44 44 43 42 42 41 41 41 40 40 39 39 39 38 37 36 36 34 33 33 32 31 31 31 30 30
43 44 46 45 45 46 46 46 47 47 47 47 47 46 46 46 46 45 45 44 44 44 44 43 43 42 41 41 41 40 39 39 38 38 37 35 35 34 34 33 33 32 32
42 43 45 45 45 46 47 47 47 48 48 48 48 48 46 46 46 46 46 45 45 44 44 44 44 44 43 43 42 41 41 41 40 39 38 38 37 36 36 36 35 34 34
42 43 45 45 46 46 47 48 48 48 49 49 49 49 47 47 47 47 47 47 46 46 45 44 44 44 44 43 43 42 42 43 42 41 40 40 39 38 37 37 38 37 36
40 42 44 45 46 47 48 48 48 48 49 49 50 50 49 49 49 48 48 48 47 47 46 45 45 44 43 43 43 43 43 44 44 43 42 41 41 40 39 39 39 39 38
39 41 42 43 45 46 48 49 48 48 49 50 50 51 51 50 49 49 49 49 48 47 47 47 47 46 45 45 44 44 44 45 45 44 43 42 42 41 41 41 41 40 39
36 38 40 42 44 45 47 48 48 49 49 49 50 51 51 50 50 49 49 49 49 48 48 48 47 47 46 46 46 45 45 45 46 45 44 44 43 43 42 41 41 41 41
34 36 38 41 43 45 46 47 48 48 49 49 50 50 51 50 50 49 49 49 49 49 48 48 48 48 48 48 47 47 46 46 46 46 46 45 45 45 45 44 44 43 42
34 35 37 39 41 42 44 45 45 46 47 50 51 50 50 51 51 50 49 49 50 50 50 50 49 49 49 48 48 48 48 47 47 46 46 46 46 46 46 46 46 45 45
34 35 36 38 40 41 42 43 44 45 46 48 49 50 51 51 50 50 49 50 50 51 51 51 51 50 50 50 50 50 49 49 49 48 47 47 47 47 47 47 47 47 46
34 36 36 38 39 40 41 42 43 44 45 46 47 48 49 49 50 50 50 50 50 50 51 51 51 51 51 51 51 51 51 50 50 50 49 48 48 48 48 48 48 48 47
30 34 36 37 37 38 40 41 42 43 43 44 46 47 47 48 49 50 50 50 50 50 50 50 50 50 51 52 52 53 53 53 52 51 50 50 49 50 50 50 50 49 49
30 31 34 36 37 38 39 40 41 42 43 44 44 45 46 46 48 49 49 50 50 50 51 51 51 51 51 51 51 52 52 52 52 52 52 51 51 51 51 51 50 50 50
30 31 32 35 37 38 39 39 40 40 42 43 44 45 45 45 46 47 48 49 50 50 51 51 52 52 51 51 51 51 51 52 52 52 52 52 52 52 52 51 51 50 50
30 30 31 32 34 36 37 39 39 39 39 40 41 43 44 45 46 46 47 48 49 50 51 51 51 51 51 51 51 51 51 52 52 53 53 52 52 53 52 52 51 51 50
27 28 29 31 32 34 35 36 37 38 39 39 40 41 43 43 43 44 45 46 48 49 49 50 50 51 51 51 51 51 51 51 52 52 53 53 52 53 53 53 52 51 51
26 26 27 28 30 32 34 35 36 38 38 39 40 40 41 42 43 43 44 45 46 47 48 48 49 48 49 49 49 50 50 50 51 52 53 53 52 52 53 53 52 52 51
25 26 26 26 28 30 31 33 35 36 37 38 39 40 40 41 41 42 42 43 44 45 46 47 48 48 47 47 48 49 49 49 50 50 50 51 51 52 52 52 51 51 51
25 26 26 27 27 28 30 31 32 34 35 36 38 38 39 39 40 40 41 41 42 43 44 45 46 47 47 47 47 47 48 48 48 48 49 49 49 50 50 50 50 50 51
25 26 26 27 27 27 28 29 31 32 34 34 35 36 36 36 37 37 38 39 40 41 42 44 44 45 46 46 46 46 46 47 47 47 47 48 48 48 48 49 49 49 49
24 25 25 26 26 27 26 27 28 29 30 32 33 34 34 35 35 36 37 37 38 39 40 41 42 43 44 44 45 45 45 46 46 45 45 46 47 47 47 47 48 48 49
24 24 25 25 25 26 26 26 26 27 27 28 30 31 32 33 34 35 36 36 36 36 37 38 39 41 42 42 43 44 44 44 44 44 44 45 45 46 46 46 46 46 47
24 25 25 25 24 25 25 25 25 25 25 26 27 28 29 30 31 32 32 33 33 33 33 34 36 37 39 40 41 41 42 42 42 43 43 43 44 44 44 44 44 45 44
Wind_Direction
234 233 233 233 234 234 234 233 234 235 236 236 237 237 239 240 241 242 243 244 244 243 244 244 244 245 245 244 246 248 250 251 252 253 255 256 256 258 260 262 264 265 266
233 232 232 232 233 233 233 233 233 234 235 237 237 237 239 240 241 242 243 244 244 245 244 244 244 244 245 245 246 247 249 251 252 253 254 256 256 257 259 261 263 264 265
232 231 231 231 232 233 233 233 234 234 235 235 236 237 239 240 241 242 243 244 243 243 243 243 244 244 245 246 246 247 248 249 251 252 254 255 256 258 258 258 260 263 265
232 232 232 232 232 233 233 233 234 234 235 236 236 237 239 241 242 243 242 243 243 243 244 244 244 245 246 246 246 247 247 249 250 252 253 255 256 257 258 259 261 263 265
232 232 231 232 232 233 233 233 234 235 236 236 238 239 240 240 241 242 243 244 244 244 244 244 245 246 247 247 246 247 248 249 250 251 252 254 256 257 258 259 261 263 265
232 232 231 232 232 233 233 233 235 236 237 237 238 238 239 240 240 241 242 243 244 245 245 244 245 247 248 247 247 249 250 250 250 251 252 254 256 257 259 260 261 263 264
235 233 231 232 233 233 234 235 236 237 238 238 239 239 239 239 241 241 242 244 244 245 246 245 245 247 248 247 248 250 251 251 251 251 252 254 255 257 259 261 262 263 264
236 235 233 234 234 235 235 236 237 238 238 239 239 239 241 242 242 242 243 244 245 245 246 246 247 247 248 249 249 249 250 251 251 251 253 254 255 256 258 260 262 263 263
238 235 234 236 235 236 236 237 239 239 240 241 242 242 241 242 243 243 243 244 244 245 246 247 248 248 250 250 250 250 250 250 251 251 252 254 255 256 258 260 261 262 263
238 236 238 238 236 236 238 239 239 240 241 241 242 242 241 242 243 243 243 244 245 245 247 248 248 248 249 249 249 250 251 250 251 252 252 253 254 256 257 260 261 262 263
238 237 240 240 239 239 239 240 241 242 242 242 242 242 243 243 243 244 244 245 245 246 247 248 249 249 250 251 250 251 251 251 251 252 252 253 254 256 258 259 261 262 264
242 242 242 241 241 241 241 242 243 243 243 243 244 245 245 244 243 244 245 245 246 246 247 247 249 249 250 250 251 251 251 251 251 252 253 254 255 256 258 259 261 262 264
246 244 244 243 244 244 243 244 244 244 244 244 244 245 245 245 244 244 245 246 246 247 248 249 250 250 250 251 251 251 252 252 252 253 253 254 255 256 258 259 260 262 263
249 247 245 245 245 245 245 246 246 246 245 245 245 246 246 246 244 244 244 246 247 248 248 249 250 250 251 251 252 252 252 253 253 253 253 254 255 256 257 259 260 262 263
253 248 246 246 246 245 245 246 246 246 246 246 246 246 246 245 245 245 246 247 248 248 248 248 249 250 251 251 252 252 253 253 253 253 253 254 255 256 258 259 260 262 262
257 253 250 248 248 247 247 246 246 246 246 246 247 246 246 246 246 246 246 247 247 248 248 249 249 250 250 250 250 251 252 253 254 254 254 255 256 257 258 259 260 261 262
259 256 255 253 250 249 248 247 247 246 247 248 247 247 247 248 248 248 248 248 247 248 248 249 249 249 250 250 250 250 251 252 253 254 255 255 256 257 258 258 259 260 262
263 261 259 256 254 252 250 249 249 249 249 249 248 248 248 249 250 251 250 249 248 248 248 248 249 249 250 250 251 251 252 253 254 254 255 255 256 257 257 258 259 260 261
266 262 260 260 257 255 253 252 251 251 251 251 250 250 250 250 251 251 251 250 250 249 248 248 249 249 250 251 251 252 252 253 254 254 254 255 256 257 257 258 259 260 261
267 265 262 261 260 258 256 255 253 252 252 251 251 252 253 252 252 252 252 252 251 250 249 249 249 250 250 251 252 252 252 253 254 254 255 255 255 256 257 258 259 259 260
268 266 264 263 261 260 259 257 255 255 254 253 252 252 252 251 252 252 252 252 252 251 250 250 250 250 251 252 253 253 253 254 254 255 255 255 255 256 257 258 258 259 260
269 268 267 265 263 262 261 259 257 256 255 253 251 251 251 251 251 252 252 252 252 251 250 250 250 251 251 252 253 254 254 255 255 255 255 255 255 256 257 257 258 259 259
273 271 270 268 266 265 263 262 260 258 255 254 252 250 250 250 251 251 251 252 253 252 251 250 250 250 251 252 254 254 254 255 255 255 255 255 256 257 257 258 259 260 260
277 276 273 271 269 267 265 263 260 258 255 253 251 250 250 251 251 252 252 253 253 253 252 250 249 249 250 252 253 254 255 255 256 256 256 255 255 256 257 258 259 259 260
278 277 276 274 270 268 265 263 261 258 255 252 250 250 251 251 252 252 253 253 253 252 250 250 249 249 250 252 253 254 255 255 255 255 255 255 254 255 257 258 259 259 259
279 278 276 273 269 266 264 262 261 259 256 253 252 252 253 253 253 253 252 252 251 251 250 250 249 250 252 253 253 254 255 254 254 255 255 254 253 254 255 257 258 259 260
Height
5687 5692 5697 5703 5709 5714 5719 5724 5728 5732 5736 5740 5744 5748 5752 5755 5758 5762 5765 5769 5772 5775 5778 5781 5784 5787 5789 5792 5794 5796 5798 5800 5802 5803 5805 5806 5807 5808 5809 5810 5810 5810 5810
5676 5681 5687 5693 5698 5704 5709 5713 5718 5722 5726 5730 5735 5739 5742 5746 5749 5752 5756 5759 5762 5765 5768 5771 5775 5778 5781 5783 5786 5788 5790 5792 5794 5796 5797 5798 5800 5801 5802 5803 5803 5804 5804
5666 5671 5677 5682 5688 5693 5698 5703 5707 5712 5716 5720 5724 5728 5732 5736 5739 5743 5746 5749 5753 5756 5759 5762 5765 5768 5771 5774 5777 5779 5782 5784 5786 5788 5790 5791 5792 5793 5795 5795 5796 5796 5797
5656 5661 5666 5672 5678 5683 5688 5693 5697 5702 5706 5710 5714 5718 5722 5726 5729 5733 5736 5739 5743 5746 5749 5753 5756 5759 5762 5765 5768 5770 5773 5775 5777 5779 5781 5783 5784 5786 5787 5788 5788 5789 5789
5646 5651 5657 5662 5668 5673 5678 5683 5687 5691 5695 5700 5703 5707 5712 5715 5719 5722 5726 5730 5733 5736 5740 5743 5746 5749 5752 5755 5758 5761 5763 5766 5768 5770 5772 5774 5775 5777 5779 5780 5781 5781 5782
5636 5641 5647 5652 5658 5662 5667 5672 5677 5681 5685 5689 5693 5697 5701 5705 5708 5712 5716 5719 5723 5726 5729 5732 5736 5739 5742 5745 5748 5751 5753 5756 5759 5761 5763 5765 5767 5768 5770 5771 5772 5773 5774
5626 5631 5637 5642 5647 5652 5656 5661 5666 5670 5674 5678 5681 5686 5690 5694 5698 5701 5705 5709 5713 5716 5719 5722 5725 5729 5731 5734 5738 5741 5743 5746 5748 5751 5754 5756 5757 5759 5760 5762 5763 5764 5765
5616 5621 5626 5632 5636 5641 5646 5650 5655 5659 5663 5667 5670 5675 5679 5683 5687 5690 5694 5698 5702 5705 5708 5711 5714 5717 5721 5724 5727 5730 5733 5735 5738 5741 5743 5745 5747 5749 5751 5752 5753 5754 5755
5606 5611 5616 5621 5625 5630 5635 5639 5643 5647 5651 5655 5659 5662 5667 5671 5675 5679 5683 5686 5690 5693 5697 5700 5703 5706 5710 5713 5716 5719 5722 5725 5727 5730 5732 5735 5737 5739 5740 5742 5743 5744 5745
5598 5603 5607 5610 5615 5619 5624 5628 5632 5636 5639 5643 5647 5650 5655 5659 5662 5666 5670 5674 5678 5681 5685 5688 5692 5695 5698 5701 5704 5707 5710 5713 5716 5719 5721 5724 5726 5728 5729 5731 5732 5733 5734
5591 5594 5597 5601 5604 5608 5612 5616 5620 5623 5627 5631 5634 5638 5642 5646 5649 5654 5658 5661 5665 5669 5673 5676 5680 5683 5686 5689 5693 5696 5699 5702 5704 5707 5710 5712 5714 5716 5718 5719 5721 5722 5723
5582 5585 5588 5591 5594 5598 5601 5605 5608 5611 5615 5619 5622 5625 5629 5633 5637 5641 5645 5648 5652 5656 5660 5663 5667 5670 5674 5677 5681 5684 5686 5689 5692 5695 5698 5700 5702 5704 5706 5708 5709 5710 5711
5574 5576 5579 5581 5584 5587 5590 5593 5596 5599 5603 5606 5610 5613 5617 5620 5624 5628 5632 5635 5639 5643 5647 5650 5654 5657 5661 5664 5668 5671 5674 5677 5680 5682 5685 5688 5690 5692 5694 5695 5697 5698 5699
5566 5568 5569 5572 5574 5576 5579 5582 5585 5588 5591 5594 5597 5601 5604 5607 5611 5615 5618 5622 5626 5630 5633 5637 5640 5644 5647 5651 5654 5657 5660 5663 5666 5669 5672 5675 5677 5679 5681 5682 5684 5685 5686
5557 5558 5560 5562 5564 5566 5568 5571 5573 5576 5579 5582 5585 5588 5591 5595 5598 5602 5605 5609 5613 5616 5620 5624 5627 5630 5633 5637 5640 5643 5646 5649 5653 5656 5659 5661 5663 5665 5667 5669 5671 5672 5673
5549 5549 5550 5552 5554 5555 5558 5560 5562 5565 5567 5570 5573 5576 5579 5582 5585 5589 5592 5596 5599 5602 5606 5610 5613 5617 5620 5623 5626 5629 5632 5636 5639 5642 5645 5647 5650 5652 5654 5656 5657 5658 5659
5540 5540 5541 5542 5544 5545 5547 5549 5551 5553 5556 5558 5561 5564 5567 5570 5573 5575 5578 5582 5585 5589 5592 5596 5599 5603 5606 5609 5612 5615 5618 5622 5625 5628 5631 5633 5636 5638 5640 5642 5643 5645 5646
5531 5531 5532 5532 5533 5534 5536 5538 5540 5542 5544 5546 5549 5552 5554 5557 5560 5562 5565 5568 5571 5575 5578 5582 5585 5589 5592 5595 5598 5601 5604 5608 5611 5614 5617 5619 5622 5624 5626 5628 5629 5631 5633
5522 5522 5522 5523 5523 5524 5526 5527 5529 5530 5532 5535 5537 5539 5542 5545 5547 5550 5552 5555 5558 5561 5564 5568 5571 5575 5578 5581 5584 5587 5591 5594 5597 5599 5602 5604 5607 5609 5611 5614 5616 5617 5619
5514 5513 5513 5514 5514 5515 5516 5517 5518 5520 5522 5523 5525 5527 5530 5532 5535 5537 5540 5542 5544 5547 5551 5554 5558 5561 5565 5568 5571 5574 5577 5581 5583 5586 5588 5590 5592 5594 5596 5598 5600 5603 5604
5506 5505 5505 5505 5505 5505 5506 5507 5508 5509 5510 5512 5514 5516 5518 5520 5523 5525 5527 5530 5532 5535 5538 5542 5545 5548 5552 5555 5557 5560 5563 5566 5569 5571 5573 5576 5578 5580 5581 5583 5586 5588 5590
5498 5498 5497 5497 5496 5496 5496 5497 5498 5498 5499 5500 5502 5505 5506 5509 5511 5513 5515 5518 5520 5522 5525 5528 5532 5535 5538 5541 5544 5546 5549 5552 5555 5557 5559 5562 5563 5565 5567 5569 5571 5573 5575
5491 5490 5489 5488 5488 5488 5487 5488 5488 5488 5489 5490 5492 5493 5496 5498 5500 5502 5504 5507 5508 5511 5513 5516 5519 5522 5525 5528 5531 5533 5536 5538 5541 5543 5545 5548 5549 5551 5553 5555 5557 5558 5560
5483 5482 5481 5480 5480 5479 5479 5479 5479 5479 5479 5481 5482 5484 5486 5488 5490 5492 5494 5496 5498 5499 5502 5504 5507 5510 5513 5516 5518 5521 5523 5525 5527 5530 5532 5534 5536 5538 5540 5541 5543 5544 5546
5476 5474 5473 5472 5471 5471 5470 5470 5470 5471 5471 5472 5474 5475 5477 5479 5480 5482 5484 5485 5487 5488 5491 5494 5496 5499 5502 5504 5506 5508 5511 5512 5514 5516 5518 5520 5523 5525 5527 5528 5530 5531 5532
5468 5467 5465 5464 5464 5463 5463 5463 5463 5463 5464 5465 5466 5467 5469 5470 5471 5473 5474 5475 5477 5479 5481 5484 5486 5488 5491 5493 5495 5496 5498 5500 5502 5504 5506 5508 5510 5512 5514 5515 5517 5518 5519